TimeEDT,TemperatureF,Dew PointF,Humidity,Sea Level PressureIn,VisibilityMPH,Wind Direction,Wind SpeedMPH,Gust SpeedMPH,PrecipitationIn,Events,Conditions,WindDirDegrees,DateUTC
12:58 AM,34.3,24.3,67,30.01,10.0,SSW,5.8,-,N/A,,Clear,210,2014-03-10 04:58:00
1:58 AM,33.1,23.4,67,29.98,10.0,SSW,5.8,-,N/A,,Clear,200,2014-03-10 05:58:00
2:58 AM,33.3,23.9,69,29.95,10.0,SSW,6.9,-,N/A,,Clear,200,2014-03-10 06:58:00
3:58 AM,35.1,23.4,62,29.93,10.0,SSW,6.9,-,N/A,,Partly Cloudy,210,2014-03-10 07:58:00
4:58 AM,35.1,22.8,61,29.92,10.0,SSW,8.1,-,N/A,,Clear,200,2014-03-10 08:58:00
5:58 AM,35.6,23.4,61,29.92,10.0,SSW,8.1,-,N/A,,Scattered Clouds,210,2014-03-10 09:58:00
6:58 AM,35.8,22.3,58,29.91,10.0,South,6.9,-,N/A,,Mostly Cloudy,190,2014-03-10 10:58:00
7:58 AM,37.9,24.6,59,29.90,10.0,South,6.9,-,N/A,,Overcast,190,2014-03-10 11:58:00
8:58 AM,41.2,27.3,58,29.90,10.0,SSW,6.9,-,N/A,,Overcast,200,2014-03-10 12:58:00
9:58 AM,45.9,28.6,51,29.88,10.0,South,13.8,-,N/A,,Mostly Cloudy,190,2014-03-10 13:58:00
10:58 AM,50.2,32.2,50,29.86,10.0,South,11.5,-,N/A,,Scattered Clouds,190,2014-03-10 14:58:00
11:58 AM,51.3,32.2,48,29.86,10.0,SW,12.7,-,N/A,,Mostly Cloudy,220,2014-03-10 15:58:00
12:46 PM,50.0,32.0,50,29.83,10.0,SSW,10.4,-,N/A,Rain,Light Rain,210,2014-03-10 16:46:00
12:58 PM,49.6,35.1,57,29.84,10.0,SW,9.2,-,0.00,Rain,Light Rain,220,2014-03-10 16:58:00
1:01 PM,50.0,35.6,58,29.82,10.0,SSW,10.4,-,N/A,,Partly Cloudy,210,2014-03-10 17:01:00
1:58 PM,52.3,33.3,48,29.80,10.0,SW,9.2,-,0.00,,Mostly Cloudy,230,2014-03-10 17:58:00
2:58 PM,54.1,30.6,41,29.77,10.0,SSW,10.4,-,N/A,,Scattered Clouds,210,2014-03-10 18:58:00
3:58 PM,55.0,30.9,40,29.75,10.0,SW,13.8,-,N/A,,Mostly Cloudy,220,2014-03-10 19:58:00
4:58 PM,56.8,32.5,40,29.72,10.0,SW,13.8,-,N/A,,Clear,220,2014-03-10 20:58:00
5:58 PM,55.8,33.4,43,29.69,10.0,South,11.5,-,N/A,,Clear,190,2014-03-10 21:58:00
6:58 PM,52.7,32.0,45,29.69,10.0,South,11.5,-,N/A,,Clear,190,2014-03-10 22:58:00
7:58 PM,48.2,31.5,52,29.69,10.0,South,8.1,-,N/A,,Clear,180,2014-03-10 23:58:00
8:58 PM,47.5,31.6,54,29.70,10.0,South,8.1,-,N/A,,Clear,180,2014-03-11 00:58:00
9:58 PM,45.0,31.1,58,29.68,10.0,South,10.4,-,N/A,,Clear,180,2014-03-11 01:58:00
10:58 PM,45.5,32.0,59,29.67,10.0,South,10.4,-,N/A,,Clear,190,2014-03-11 02:58:00
11:58 PM,45.9,32.4,59,29.66,10.0,SSW,9.2,-,N/A,,Clear,200,2014-03-11 03:58:00